Location: ????????
(55.4000°N, 39.1167°E)
Time: 03:50:16
(UTC+00:00)

BREEZE-M DEB (TANK) - Pass Details

Date: 19 May 2025
Orbit: 281 x 12174 km, 49.5° (Epoch: 15 June)

Event Time Altitude Azimuth Distance (km) Brightness Sun altitude
Rises 20:43:20 0° 283° (WNW) 8,008 8.5 -14.2°
Reaches altitude 10° 20:50:59 10° 278° (W) 5,144 7.4 -14.4°
Maximum altitude 21:00:44 35° 219° (SW) 1,487 4.1 -14.5°
Enters shadow 21:02:51 23° 171° (S) 1,471 3.8 -14.5°
